Time,TemperatureF,DewpointF,PressureIn,WindDirection,WindDirectionDegrees,WindSpeedMPH,WindSpeedGustMPH,Humidity,HourlyPrecipIn,Conditions,Clouds,dailyrainin,SoftwareType,DateUTC
2013-04-14 00:00:00,36.6,29.4,29.97,WSW,256,1.0,1.0,75,0.00,,,0.01,Wunderground v.1.15,2013-04-14 04:00:00,
2013-04-14 00:01:00,36.6,29.4,29.97,WSW,256,1.0,1.0,75,0.00,,,0.00,Wunderground v.1.15,2013-04-14 04:01:00,
2013-04-14 00:02:00,36.6,29.4,29.98,WSW,255,1.0,1.0,75,0.00,,,0.00,Wunderground v.1.15,2013-04-14 04:02:00,
2013-04-14 00:04:00,36.6,29.4,29.98,WSW,252,1.0,1.0,75,0.00,,,0.00,Wunderground v.1.15,2013-04-14 04:04:00,
2013-04-14 00:09:00,36.6,29.4,29.98,WSW,252,1.0,1.0,75,0.00,,,0.00,Wunderground v.1.15,2013-04-14 04:09:00,
2013-04-14 00:14:00,36.6,29.4,29.98,West,274,1.0,3.0,75,0.00,,,0.00,Wunderground v.1.15,2013-04-14 04:14:00,
2013-04-14 00:20:00,36.6,29.4,29.98,WSW,252,1.0,1.0,75,0.00,,,0.00,Wunderground v.1.15,2013-04-14 04:20:00,
2013-04-14 00:25:00,36.6,29.4,29.98,West,271,1.0,4.0,75,0.00,,,0.00,Wunderground v.1.15,2013-04-14 04:25:00,
2013-04-14 00:31:00,36.5,29.3,29.98,West,271,1.0,2.0,75,0.00,,,0.00,Wunderground v.1.15,2013-04-14 04:31:00,
2013-04-14 00:37:00,36.5,29.3,29.98,West,271,0.0,2.0,75,0.00,,,0.00,Wunderground v.1.15,2013-04-14 04:37:00,
2013-04-14 00:42:00,36.5,29.3,29.98,West,271,0.0,0.0,75,0.00,,,0.00,Wunderground v.1.15,2013-04-14 04:42:00,
2013-04-14 00:47:00,36.5,29.3,29.98,West,271,1.0,2.0,75,0.00,,,0.00,Wunderground v.1.15,2013-04-14 04:47:00,
2013-04-14 00:53:00,36.5,29.3,29.97,West,271,1.0,1.0,75,0.00,,,0.00,Wunderground v.1.15,2013-04-14 04:53:00,
2013-04-14 00:59:00,36.5,29.3,29.98,West,271,1.0,3.0,75,0.00,,,0.00,Wunderground v.1.15,2013-04-14 04:59:00,
2013-04-14 01:04:00,36.5,29.3,29.98,West,275,1.0,3.0,75,0.00,,,0.00,Wunderground v.1.15,2013-04-14 05:04:00,
2013-04-14 01:10:00,36.5,29.3,29.98,West,275,1.0,1.0,75,0.00,,,0.00,Wunderground v.1.15,2013-04-14 05:10:00,
2013-04-14 01:15:00,36.4,29.2,29.98,West,275,0.0,1.0,75,0.00,,,0.00,Wunderground v.1.15,2013-04-14 05:15:00,
2013-04-14 01:21:00,36.4,29.2,29.98,West,275,0.0,0.0,75,0.00,,,0.00,Wunderground v.1.15,2013-04-14 05:21:00,
2013-04-14 01:26:00,36.4,29.2,29.99,West,275,0.0,3.0,75,0.00,,,0.00,Wunderground v.1.15,2013-04-14 05:26:00,
2013-04-14 01:32:00,36.3,29.1,29.99,West,271,1.0,2.0,75,0.00,,,0.00,Wunderground v.1.15,2013-04-14 05:32:00,
2013-04-14 01:38:00,36.4,29.2,29.99,West,274,1.0,4.0,75,0.00,,,0.00,Wunderground v.1.15,2013-04-14 05:38:00,
2013-04-14 01:44:00,36.4,29.2,29.99,West,265,1.0,3.0,75,0.00,,,0.00,Wunderground v.1.15,2013-04-14 05:44:00,
2013-04-14 01:50:00,36.4,29.2,29.99,WNW,284,1.0,1.0,75,0.00,,,0.00,Wunderground v.1.15,2013-04-14 05:50:00,
2013-04-14 01:55:00,36.4,29.2,29.99,WNW,283,1.0,3.0,75,0.00,,,0.00,Wunderground v.1.15,2013-04-14 05:55:00,
2013-04-14 02:00:00,36.4,29.2,29.99,West,265,1.0,4.0,75,0.00,,,0.00,Wunderground v.1.15,2013-04-14 06:00:00,
2013-04-14 02:06:00,36.4,29.2,29.99,West,269,2.0,4.0,75,0.00,,,0.00,Wunderground v.1.15,2013-04-14 06:06:00,
2013-04-14 02:11:00,36.4,29.2,29.99,West,269,1.0,1.0,75,0.00,,,0.00,Wunderground v.1.15,2013-04-14 06:11:00,
2013-04-14 02:17:00,36.4,29.6,29.99,WSW,247,0.0,1.0,76,0.00,,,0.00,Wunderground v.1.15,2013-04-14 06:17:00,
2013-04-14 02:23:00,36.4,29.6,30.00,SSW,192,0.0,0.0,76,0.00,,,0.00,Wunderground v.1.15,2013-04-14 06:23:00,
2013-04-14 02:29:00,36.3,29.5,30.00,SSW,204,0.0,0.0,76,0.00,,,0.00,Wunderground v.1.15,2013-04-14 06:29:00,
2013-04-14 02:35:00,36.2,29.4,30.00,SW,218,0.0,2.0,76,0.00,,,0.00,Wunderground v.1.15,2013-04-14 06:35:00,
2013-04-14 02:41:00,36.2,29.4,30.00,SW,218,0.0,0.0,76,0.00,,,0.00,Wunderground v.1.15,2013-04-14 06:41:00,
2013-04-14 02:46:00,36.1,29.3,30.00,SW,218,0.0,0.0,76,0.00,,,0.00,Wunderground v.1.15,2013-04-14 06:46:00,
2013-04-14 02:52:00,36.1,29.3,30.00,WSW,240,0.0,3.0,76,0.00,,,0.00,Wunderground v.1.15,2013-04-14 06:52:00,
2013-04-14 02:57:00,36.1,29.3,29.99,WSW,240,0.0,3.0,76,0.00,,,0.00,Wunderground v.1.15,2013-04-14 06:57:00,
2013-04-14 03:03:00,36.1,29.3,30.00,WSW,240,0.0,0.0,76,0.00,,,0.00,Wunderground v.1.15,2013-04-14 07:03:00,
2013-04-14 03:08:00,36.0,29.2,30.00,WSW,255,0.0,4.0,76,0.00,,,0.00,Wunderground v.1.15,2013-04-14 07:08:00,
2013-04-14 03:14:00,36.0,29.2,30.00,SSW,196,0.0,0.0,76,0.00,,,0.00,Wunderground v.1.15,2013-04-14 07:14:00,
2013-04-14 03:20:00,36.0,29.2,30.00,WSW,241,1.0,1.0,76,0.00,,,0.00,Wunderground v.1.15,2013-04-14 07:20:00,
2013-04-14 03:26:00,36.1,29.3,30.00,WSW,248,1.0,1.0,76,0.00,,,0.00,Wunderground v.1.15,2013-04-14 07:26:00,
2013-04-14 03:32:00,36.0,29.2,30.00,WSW,248,0.0,0.0,76,0.00,,,0.00,Wunderground v.1.15,2013-04-14 07:32:00,
2013-04-14 03:37:00,35.9,29.1,29.99,WSW,244,0.0,2.0,76,0.00,,,0.00,Wunderground v.1.15,2013-04-14 07:37:00,
2013-04-14 03:43:00,35.8,29.0,29.99,WSW,244,0.0,0.0,76,0.00,,,0.00,Wunderground v.1.15,2013-04-14 07:43:00,
2013-04-14 03:49:00,35.6,28.8,30.00,WSW,244,0.0,0.0,76,0.00,,,0.00,Wunderground v.1.15,2013-04-14 07:49:00,
2013-04-14 03:54:00,35.4,28.9,30.00,WSW,244,0.0,0.0,77,0.00,,,0.00,Wunderground v.1.15,2013-04-14 07:54:00,
2013-04-14 04:00:00,35.2,28.7,30.00,WSW,244,0.0,0.0,77,0.00,,,0.00,Wunderground v.1.15,2013-04-14 08:00:00,
2013-04-14 04:06:00,35.0,28.5,30.00,WSW,244,0.0,1.0,77,0.00,,,0.00,Wunderground v.1.15,2013-04-14 08:06:00,
2013-04-14 04:12:00,34.9,28.7,30.00,WSW,244,0.0,0.0,78,0.00,,,0.00,Wunderground v.1.15,2013-04-14 08:12:00,
2013-04-14 04:17:00,34.7,28.5,30.01,WSW,244,0.0,0.0,78,0.00,,,0.00,Wunderground v.1.15,2013-04-14 08:17:00,
2013-04-14 04:22:00,34.6,28.4,30.00,West,259,0.0,1.0,78,0.00,,,0.00,Wunderground v.1.15,2013-04-14 08:22:00,
2013-04-14 04:28:00,34.6,28.4,30.01,West,259,0.0,2.0,78,0.00,,,0.00,Wunderground v.1.15,2013-04-14 08:28:00,
2013-04-14 04:34:00,34.4,28.2,30.01,SW,234,0.0,0.0,78,0.00,,,0.00,Wunderground v.1.15,2013-04-14 08:34:00,
2013-04-14 04:39:00,34.3,28.5,30.01,West,281,0.0,3.0,79,0.00,,,0.00,Wunderground v.1.15,2013-04-14 08:39:00,
2013-04-14 04:45:00,34.2,28.4,30.01,West,281,0.0,1.0,79,0.00,,,0.00,Wunderground v.1.15,2013-04-14 08:45:00,
2013-04-14 04:51:00,34.2,28.4,30.01,West,281,0.0,0.0,79,0.00,,,0.00,Wunderground v.1.15,2013-04-14 08:51:00,
2013-04-14 04:57:00,34.1,28.3,30.02,West,281,0.0,2.0,79,0.00,,,0.00,Wunderground v.1.15,2013-04-14 08:57:00,
2013-04-14 05:02:00,34.0,28.2,30.02,West,281,0.0,0.0,79,0.00,,,0.00,Wunderground v.1.15,2013-04-14 09:02:00,
2013-04-14 05:08:00,33.8,28.3,30.02,West,281,0.0,0.0,80,0.00,,,0.00,Wunderground v.1.15,2013-04-14 09:08:00,
2013-04-14 05:13:00,33.8,28.3,30.02,West,281,0.0,0.0,80,0.00,,,0.00,Wunderground v.1.15,2013-04-14 09:13:00,
2013-04-14 05:19:00,33.6,28.1,30.02,West,281,0.0,0.0,80,0.00,,,0.00,Wunderground v.1.15,2013-04-14 09:19:00,
2013-04-14 05:25:00,33.6,28.1,30.02,West,281,0.0,0.0,80,0.00,,,0.00,Wunderground v.1.15,2013-04-14 09:25:00,
2013-04-14 05:30:00,33.4,28.2,30.02,West,281,0.0,0.0,81,0.00,,,0.00,Wunderground v.1.15,2013-04-14 09:30:00,
2013-04-14 05:36:00,33.3,28.1,30.02,West,281,0.0,0.0,81,0.00,,,0.00,Wunderground v.1.15,2013-04-14 09:36:00,
2013-04-14 05:42:00,33.2,28.0,30.02,West,281,0.0,0.0,81,0.00,,,0.00,Wunderground v.1.15,2013-04-14 09:42:00,
2013-04-14 05:48:00,33.1,28.2,30.03,West,281,0.0,0.0,82,0.00,,,0.00,Wunderground v.1.15,2013-04-14 09:48:00,
2013-04-14 05:53:00,33.0,28.1,30.03,West,281,0.0,0.0,82,0.00,,,0.00,Wunderground v.1.15,2013-04-14 09:53:00,
2013-04-14 05:58:00,33.0,28.1,30.03,West,281,0.0,0.0,82,0.00,,,0.00,Wunderground v.1.15,2013-04-14 09:58:00,
2013-04-14 06:03:00,33.0,28.1,30.03,West,281,0.0,0.0,82,0.00,,,0.00,Wunderground v.1.15,2013-04-14 10:03:00,
2013-04-14 06:09:00,32.9,28.0,30.03,West,281,0.0,0.0,82,0.00,,,0.00,Wunderground v.1.15,2013-04-14 10:09:00,
2013-04-14 06:15:00,33.0,28.4,30.03,West,280,0.0,0.0,83,0.00,,,0.00,Wunderground v.1.15,2013-04-14 10:15:00,
2013-04-14 06:21:00,33.0,28.1,30.04,West,281,0.0,0.0,82,0.00,,,0.00,Wunderground v.1.15,2013-04-14 10:21:00,
2013-04-14 06:27:00,33.2,28.6,30.04,West,281,0.0,2.0,83,0.00,,,0.00,Wunderground v.1.15,2013-04-14 10:27:00,
2013-04-14 06:33:00,33.3,28.4,30.04,West,281,0.0,1.0,82,0.00,,,0.00,Wunderground v.1.15,2013-04-14 10:33:00,
2013-04-14 06:39:00,33.4,28.5,30.05,West,281,0.0,1.0,82,0.00,,,0.00,Wunderground v.1.15,2013-04-14 10:39:00,
2013-04-14 06:44:00,33.5,28.6,30.05,West,281,0.0,0.0,82,0.00,,,0.00,Wunderground v.1.15,2013-04-14 10:44:00,
2013-04-14 06:50:00,33.5,28.6,30.05,West,281,0.0,0.0,82,0.00,,,0.00,Wunderground v.1.15,2013-04-14 10:50:00,
2013-04-14 06:55:00,33.6,28.7,30.06,West,281,0.0,0.0,82,0.00,,,0.00,Wunderground v.1.15,2013-04-14 10:55:00,
2013-04-14 07:00:00,33.6,28.7,30.06,West,281,0.0,0.0,82,0.00,,,0.00,Wunderground v.1.15,2013-04-14 11:00:00,
2013-04-14 07:06:00,33.7,28.8,30.06,West,281,0.0,0.0,82,0.00,,,0.00,Wunderground v.1.15,2013-04-14 11:06:00,
2013-04-14 07:12:00,33.8,28.9,30.06,West,281,0.0,0.0,82,0.00,,,0.00,Wunderground v.1.15,2013-04-14 11:12:00,
2013-04-14 07:17:00,33.8,28.9,30.07,West,281,0.0,0.0,82,0.00,,,0.00,Wunderground v.1.15,2013-04-14 11:17:00,
2013-04-14 07:22:00,33.8,28.9,30.07,West,281,0.0,0.0,82,0.00,,,0.00,Wunderground v.1.15,2013-04-14 11:22:00,
2013-04-14 07:28:00,33.9,29.0,30.07,West,281,0.0,4.0,82,0.00,,,0.00,Wunderground v.1.15,2013-04-14 11:28:00,
2013-04-14 07:34:00,34.0,29.1,30.07,WNW,300,0.0,1.0,82,0.00,,,0.00,Wunderground v.1.15,2013-04-14 11:34:00,
2013-04-14 07:39:00,34.1,29.2,30.07,WNW,300,0.0,1.0,82,0.00,,,0.00,Wunderground v.1.15,2013-04-14 11:39:00,
2013-04-14 07:45:00,34.2,29.3,30.07,WNW,298,0.0,2.0,82,0.00,,,0.00,Wunderground v.1.15,2013-04-14 11:45:00,
2013-04-14 07:50:00,34.2,29.3,30.08,WNW,298,0.0,0.0,82,0.00,,,0.00,Wunderground v.1.15,2013-04-14 11:50:00,
2013-04-14 07:56:00,34.3,29.4,30.07,WNW,298,0.0,0.0,82,0.00,,,0.00,Wunderground v.1.15,2013-04-14 11:56:00,
2013-04-14 08:02:00,34.5,29.6,30.08,NW,306,0.0,1.0,82,0.00,,,0.00,Wunderground v.1.15,2013-04-14 12:02:00,
2013-04-14 08:08:00,34.6,29.4,30.08,NW,306,1.0,2.0,81,0.00,,,0.00,Wunderground v.1.15,2013-04-14 12:08:00,
2013-04-14 08:13:00,34.7,29.5,30.08,WNW,289,1.0,1.0,81,0.00,,,0.00,Wunderground v.1.15,2013-04-14 12:13:00,
2013-04-14 08:19:00,34.9,29.7,30.08,WNW,289,0.0,1.0,81,0.00,,,0.00,Wunderground v.1.15,2013-04-14 12:19:00,
2013-04-14 08:25:00,35.0,29.8,30.08,WNW,289,0.0,3.0,81,0.00,,,0.00,Wunderground v.1.15,2013-04-14 12:25:00,
2013-04-14 08:31:00,35.1,29.9,30.08,WNW,289,1.0,2.0,81,0.00,,,0.00,Wunderground v.1.15,2013-04-14 12:31:00,
2013-04-14 08:36:00,35.2,29.6,30.08,WNW,289,1.0,3.0,80,0.00,,,0.00,Wunderground v.1.15,2013-04-14 12:36:00,
2013-04-14 08:42:00,35.3,29.7,30.08,WNW,289,1.0,1.0,80,0.00,,,0.00,Wunderground v.1.15,2013-04-14 12:42:00,
2013-04-14 08:47:00,35.4,29.8,30.08,WNW,289,0.0,1.0,80,0.00,,,0.00,Wunderground v.1.15,2013-04-14 12:47:00,
2013-04-14 08:53:00,35.6,30.0,30.07,NW,310,0.0,2.0,80,0.00,,,0.00,Wunderground v.1.15,2013-04-14 12:53:00,
2013-04-14 08:58:00,35.7,30.1,30.06,NW,310,1.0,2.0,80,0.00,,,0.00,Wunderground v.1.15,2013-04-14 12:58:00,
2013-04-14 09:03:00,35.9,30.0,30.06,NW,310,0.0,1.0,79,0.00,,,0.00,Wunderground v.1.15,2013-04-14 13:03:00,
2013-04-14 09:09:00,36.3,30.4,30.06,NW,315,1.0,3.0,79,0.00,,,0.00,Wunderground v.1.15,2013-04-14 13:09:00,
2013-04-14 09:15:00,36.7,30.5,30.06,NNE,12,2.0,2.0,78,0.00,,,0.00,Wunderground v.1.15,2013-04-14 13:15:00,
2013-04-14 09:20:00,36.9,30.4,30.06,NW,315,2.0,3.0,77,0.00,,,0.00,Wunderground v.1.15,2013-04-14 13:20:00,
2013-04-14 09:26:00,37.0,30.5,30.06,NNE,31,2.0,3.0,77,0.00,,,0.00,Wunderground v.1.15,2013-04-14 13:26:00,
2013-04-14 09:32:00,37.3,30.1,30.06,NNE,19,1.0,5.0,75,0.00,,,0.00,Wunderground v.1.15,2013-04-14 13:32:00,
2013-04-14 09:38:00,37.5,30.3,30.06,North,5,2.0,5.0,75,0.00,,,0.00,Wunderground v.1.15,2013-04-14 13:38:00,
2013-04-14 09:43:00,37.6,30.1,30.06,North,9,1.0,3.0,74,0.00,,,0.00,Wunderground v.1.15,2013-04-14 13:43:00,
2013-04-14 09:49:00,37.9,30.0,30.06,NE,45,1.0,3.0,73,0.00,,,0.00,Wunderground v.1.15,2013-04-14 13:49:00,
2013-04-14 09:54:00,38.0,29.8,30.06,NNW,327,1.0,2.0,72,0.00,,,0.00,Wunderground v.1.15,2013-04-14 13:54:00,
2013-04-14 09:59:00,38.3,30.1,30.06,ENE,67,0.0,2.0,72,0.00,,,0.00,Wunderground v.1.15,2013-04-14 13:59:00,
2013-04-14 10:05:00,38.2,29.6,30.06,ENE,67,1.0,2.0,71,0.00,,,0.00,Wunderground v.1.15,2013-04-14 14:05:00,
2013-04-14 10:10:00,38.3,29.7,30.06,East,82,1.0,1.0,71,0.00,,,0.00,Wunderground v.1.15,2013-04-14 14:10:00,
2013-04-14 10:16:00,38.4,30.2,30.06,NE,49,1.0,1.0,72,0.00,,,0.00,Wunderground v.1.15,2013-04-14 14:16:00,
2013-04-14 10:22:00,38.8,30.2,30.06,NE,49,0.0,0.0,71,0.00,,,0.00,Wunderground v.1.15,2013-04-14 14:22:00,
2013-04-14 10:27:00,39.0,29.7,30.06,ESE,122,0.0,2.0,69,0.00,,,0.00,Wunderground v.1.15,2013-04-14 14:27:00,
2013-04-14 10:33:00,39.0,29.7,30.06,ESE,122,0.0,0.0,69,0.00,,,0.00,Wunderground v.1.15,2013-04-14 14:33:00,
2013-04-14 10:38:00,38.9,29.6,30.06,ESE,122,0.0,3.0,69,0.00,,,0.00,Wunderground v.1.15,2013-04-14 14:38:00,
2013-04-14 10:43:00,38.7,29.0,30.06,SE,126,1.0,2.0,68,0.00,,,0.00,Wunderground v.1.15,2013-04-14 14:43:00,
2013-04-14 10:49:00,38.5,29.6,30.06,ESE,121,2.0,3.0,70,0.00,,,0.00,Wunderground v.1.15,2013-04-14 14:49:00,
2013-04-14 10:54:00,38.4,29.1,30.07,ESE,116,2.0,5.0,69,0.00,,,0.00,Wunderground v.1.15,2013-04-14 14:54:00,
2013-04-14 11:00:00,38.4,29.5,30.08,South,186,2.0,6.0,70,0.00,,,0.00,Wunderground v.1.15,2013-04-14 15:00:00,
2013-04-14 11:06:00,38.4,30.2,30.10,SSW,209,2.0,7.0,72,0.00,,,0.00,Wunderground v.1.15,2013-04-14 15:06:00,
2013-04-14 11:12:00,38.2,30.6,30.09,South,190,3.0,3.0,74,0.00,,,0.00,Wunderground v.1.15,2013-04-14 15:12:00,
2013-04-14 11:18:00,37.7,30.8,30.09,WSW,255,3.0,6.0,76,0.00,,,0.00,Wunderground v.1.15,2013-04-14 15:18:00,
2013-04-14 11:23:00,37.2,30.3,30.09,South,178,3.0,7.0,76,0.00,,,0.00,Wunderground v.1.15,2013-04-14 15:23:00,
2013-04-14 11:29:00,36.8,30.6,30.10,SW,225,3.0,7.0,78,0.00,,,0.00,Wunderground v.1.15,2013-04-14 15:29:00,
2013-04-14 11:34:00,36.6,30.7,30.10,SSE,155,2.0,5.0,79,0.00,,,0.00,Wunderground v.1.15,2013-04-14 15:34:00,
2013-04-14 11:40:00,36.4,30.5,30.10,SE,142,2.0,3.0,79,0.00,,,0.00,Wunderground v.1.15,2013-04-14 15:40:00,
2013-04-14 11:45:00,36.3,30.7,30.11,South,188,3.0,4.0,80,0.00,,,0.00,Wunderground v.1.15,2013-04-14 15:45:00,
2013-04-14 11:51:00,36.4,30.5,30.10,SSW,197,2.0,3.0,79,0.00,,,0.00,Wunderground v.1.15,2013-04-14 15:51:00,
2013-04-14 11:57:00,36.2,30.3,30.10,SSW,196,1.0,3.0,79,0.00,,,0.00,Wunderground v.1.15,2013-04-14 15:57:00,
2013-04-14 12:02:00,36.2,30.6,30.10,SSE,165,1.0,4.0,80,0.00,,,0.00,Wunderground v.1.15,2013-04-14 16:02:00,
2013-04-14 12:08:00,36.2,30.6,30.11,South,186,1.0,4.0,80,0.00,,,0.00,Wunderground v.1.15,2013-04-14 16:08:00,
2013-04-14 12:13:00,36.2,30.6,30.11,SSW,197,2.0,7.0,80,0.00,,,0.00,Wunderground v.1.15,2013-04-14 16:13:00,
2013-04-14 12:19:00,36.1,30.8,30.11,WSW,242,3.0,7.0,81,0.00,,,0.00,Wunderground v.1.15,2013-04-14 16:19:00,
2013-04-14 12:25:00,36.0,31.3,30.10,SSE,150,3.0,5.0,83,0.00,,,0.00,Wunderground v.1.15,2013-04-14 16:25:00,
2013-04-14 12:26:00,36.0,31.3,30.10,SSE,158,2.0,-999.0,83,0.00,,,0.02,Wunderground v.1.15,2013-04-14 16:26:00,
2013-04-14 12:30:00,36.0,31.6,30.10,SE,128,2.0,2.0,84,0.00,,,0.00,Wunderground v.1.15,2013-04-14 16:30:00,
2013-04-14 12:31:00,36.1,31.7,30.10,N/A,-737280,0.0,-999.0,84,0.00,,,0.02,Wunderground v.1.15,2013-04-14 16:31:00,
2013-04-14 12:36:00,36.1,31.7,30.10,SSW,203,2.0,-999.0,84,0.00,,,0.02,Wunderground v.1.15,2013-04-14 16:36:00,
2013-04-14 12:37:00,36.1,31.7,30.10,South,188,1.0,4.0,84,0.00,,,0.00,Wunderground v.1.15,2013-04-14 16:37:00,
2013-04-14 12:41:00,36.1,31.7,30.10,SSE,158,0.0,-999.0,84,0.00,,,0.02,Wunderground v.1.15,2013-04-14 16:41:00,
2013-04-14 12:43:00,36.2,32.1,30.10,SE,142,1.0,3.0,85,0.00,,,0.00,Wunderground v.1.15,2013-04-14 16:43:00,
2013-04-14 12:46:00,36.3,32.2,30.10,N/A,-737280,0.0,-999.0,85,0.00,,,0.02,Wunderground v.1.15,2013-04-14 16:46:00,
2013-04-14 12:48:00,36.4,32.6,30.10,SSW,208,0.0,3.0,86,0.00,,,0.00,Wunderground v.1.15,2013-04-14 16:48:00,
2013-04-14 12:51:00,36.6,32.8,30.10,South,180,0.0,-999.0,86,0.00,,,0.02,Wunderground v.1.15,2013-04-14 16:51:00,
2013-04-14 12:54:00,36.7,32.9,30.10,SSW,209,1.0,4.0,86,0.00,,,0.00,Wunderground v.1.15,2013-04-14 16:54:00,
2013-04-14 12:56:00,36.9,33.1,30.10,SSW,203,4.0,-999.0,86,0.00,,,0.02,Wunderground v.1.15,2013-04-14 16:56:00,
2013-04-14 13:00:00,37.0,33.2,30.10,SSW,198,1.0,1.0,86,0.00,,,0.00,Wunderground v.1.15,2013-04-14 17:00:00,
2013-04-14 13:01:00,36.9,33.1,30.10,N/A,-737280,0.0,-999.0,86,0.00,,,0.02,Wunderground v.1.15,2013-04-14 17:01:00,
2013-04-14 13:06:00,37.0,33.5,30.10,South,188,1.0,3.0,87,0.00,,,0.01,Wunderground v.1.15,2013-04-14 17:06:00,
2013-04-14 13:11:00,36.9,33.4,30.10,SSW,200,1.0,1.0,87,0.00,,,0.01,Wunderground v.1.15,2013-04-14 17:11:00,
2013-04-14 13:16:00,36.8,33.3,30.09,N/A,-737280,0.0,-999.0,87,0.01,,,0.02,Wunderground v.1.15,2013-04-14 17:16:00,
2013-04-14 13:17:00,36.8,33.3,30.10,SSW,200,1.0,1.0,87,0.00,,,0.01,Wunderground v.1.15,2013-04-14 17:17:00,
2013-04-14 13:21:00,36.8,33.6,30.09,N/A,-737280,0.0,-999.0,88,0.01,,,0.02,Wunderground v.1.15,2013-04-14 17:21:00,
2013-04-14 13:23:00,36.7,33.5,30.09,East,86,0.0,0.0,88,0.00,,,0.01,Wunderground v.1.15,2013-04-14 17:23:00,
2013-04-14 13:26:00,36.7,33.5,30.09,N/A,-737280,0.0,-999.0,88,0.01,,,0.02,Wunderground v.1.15,2013-04-14 17:26:00,
2013-04-14 13:28:00,36.7,33.5,30.09,SSE,155,0.0,0.0,88,0.00,,,0.01,Wunderground v.1.15,2013-04-14 17:28:00,
2013-04-14 13:31:00,36.8,33.6,30.09,N/A,-737280,0.0,-999.0,88,0.01,,,0.02,Wunderground v.1.15,2013-04-14 17:31:00,
2013-04-14 13:34:00,36.8,33.9,30.08,SSE,161,0.0,0.0,89,0.00,,,0.01,Wunderground v.1.15,2013-04-14 17:34:00,
2013-04-14 13:36:00,36.9,34.0,30.08,ESE,113,0.0,-999.0,89,0.01,,,0.02,Wunderground v.1.15,2013-04-14 17:36:00,
2013-04-14 13:40:00,36.9,34.0,30.07,ENE,59,1.0,4.0,89,0.00,,,0.01,Wunderground v.1.15,2013-04-14 17:40:00,
2013-04-14 13:41:00,36.9,34.0,30.07,NE,45,2.0,-999.0,89,0.01,,,0.02,Wunderground v.1.15,2013-04-14 17:41:00,
2013-04-14 13:45:00,36.9,34.0,30.07,NE,55,2.0,4.0,89,0.00,,,0.01,Wunderground v.1.15,2013-04-14 17:45:00,
2013-04-14 13:46:00,36.9,34.2,30.07,NE,45,2.0,-999.0,90,0.01,,,0.02,Wunderground v.1.15,2013-04-14 17:46:00,
2013-04-14 13:50:00,36.8,33.9,30.07,ENE,59,2.0,5.0,89,0.00,,,0.01,Wunderground v.1.15,2013-04-14 17:50:00,
2013-04-14 13:51:00,36.8,33.9,30.07,East,90,4.0,-999.0,89,0.01,,,0.02,Wunderground v.1.15,2013-04-14 17:51:00,
2013-04-14 13:55:00,36.7,34.0,30.06,ENE,65,3.0,5.0,90,0.00,,,0.01,Wunderground v.1.15,2013-04-14 17:55:00,
2013-04-14 13:56:00,36.6,33.9,30.06,ENE,68,3.0,-999.0,90,0.01,,,0.02,Wunderground v.1.15,2013-04-14 17:56:00,
2013-04-14 14:00:00,36.6,33.9,30.06,East,90,4.0,4.0,90,0.00,,,0.01,Wunderground v.1.15,2013-04-14 18:00:00,
2013-04-14 14:01:00,36.6,33.9,30.06,ENE,68,2.0,-999.0,90,0.01,,,0.02,Wunderground v.1.15,2013-04-14 18:01:00,
2013-04-14 14:06:00,36.7,34.3,30.05,ENE,69,2.0,4.0,91,0.00,,,0.01,Wunderground v.1.15,2013-04-14 18:06:00,
2013-04-14 14:11:00,37.0,34.6,30.06,ESE,119,2.0,3.0,91,0.00,,,0.02,Wunderground v.1.15,2013-04-14 18:11:00,
2013-04-14 14:16:00,37.3,34.9,30.05,ESE,113,2.0,-999.0,91,0.01,,,0.02,Wunderground v.1.15,2013-04-14 18:16:00,
2013-04-14 14:17:00,37.4,35.3,30.05,ESE,113,2.0,3.0,92,0.00,,,0.02,Wunderground v.1.15,2013-04-14 18:17:00,
2013-04-14 14:21:00,37.7,35.3,30.05,East,90,1.0,-999.0,91,0.01,,,0.02,Wunderground v.1.15,2013-04-14 18:21:00,
2013-04-14 14:23:00,37.8,35.4,30.05,NE,55,2.0,4.0,91,0.00,,,0.02,Wunderground v.1.15,2013-04-14 18:23:00,
2013-04-14 14:26:00,38.2,36.1,30.05,SSE,158,0.0,-999.0,92,0.01,,,0.02,Wunderground v.1.15,2013-04-14 18:26:00,
2013-04-14 14:29:00,38.2,35.5,30.05,East,96,3.0,6.0,90,0.00,,,0.02,Wunderground v.1.15,2013-04-14 18:29:00,
2013-04-14 14:31:00,38.2,35.2,30.05,East,90,7.0,-999.0,89,0.01,,,0.02,Wunderground v.1.15,2013-04-14 18:31:00,
2013-04-14 14:34:00,38.3,35.3,30.05,ESE,113,4.0,8.0,89,0.00,,,0.02,Wunderground v.1.15,2013-04-14 18:34:00,
2013-04-14 14:36:00,38.4,35.2,30.05,ESE,113,4.0,-999.0,88,0.01,,,0.02,Wunderground v.1.15,2013-04-14 18:36:00,
2013-04-14 14:40:00,38.6,35.6,30.06,ESE,112,4.0,5.0,89,0.00,,,0.02,Wunderground v.1.15,2013-04-14 18:40:00,
2013-04-14 14:41:00,38.8,35.8,30.06,SE,135,4.0,-999.0,89,0.01,,,0.02,Wunderground v.1.15,2013-04-14 18:41:00,
2013-04-14 14:46:00,39.1,35.8,30.05,ENE,78,4.0,9.0,88,0.00,,,0.02,Wunderground v.1.15,2013-04-14 18:46:00,
2013-04-14 14:51:00,39.4,35.9,30.06,SE,135,5.0,-999.0,87,0.01,,,0.02,Wunderground v.1.15,2013-04-14 18:51:00,
2013-04-14 14:52:00,39.4,35.9,30.06,SE,130,4.0,6.0,87,0.00,,,0.02,Wunderground v.1.15,2013-04-14 18:52:00,
2013-04-14 14:56:00,39.5,35.7,30.05,SE,135,4.0,-999.0,86,0.01,,,0.02,Wunderground v.1.15,2013-04-14 18:56:00,
2013-04-14 14:58:00,39.6,36.0,30.05,South,171,4.0,6.0,87,0.00,,,0.02,Wunderground v.1.15,2013-04-14 18:58:00,
2013-04-14 15:01:00,39.7,36.1,30.05,ENE,68,5.0,-999.0,87,0.01,,,0.02,Wunderground v.1.15,2013-04-14 19:01:00,
2013-04-14 15:03:00,39.9,36.3,30.05,ENE,78,4.0,7.0,87,0.00,,,0.02,Wunderground v.1.15,2013-04-14 19:03:00,
2013-04-14 15:06:00,40.1,36.2,30.05,SE,135,3.0,-999.0,86,0.01,,,0.02,Wunderground v.1.15,2013-04-14 19:06:00,
2013-04-14 15:09:00,40.2,36.3,30.05,ESE,102,3.0,7.0,86,0.00,,,0.02,Wunderground v.1.15,2013-04-14 19:09:00,
2013-04-14 15:11:00,40.2,36.1,30.05,East,90,5.0,-999.0,85,0.00,,,0.02,Wunderground v.1.15,2013-04-14 19:11:00,
2013-04-14 15:15:00,40.4,36.5,30.05,ESE,113,4.0,5.0,86,0.00,,,0.02,Wunderground v.1.15,2013-04-14 19:15:00,
2013-04-14 15:16:00,40.5,36.6,30.05,SSE,158,3.0,-999.0,86,0.00,,,0.02,Wunderground v.1.15,2013-04-14 19:16:00,
2013-04-14 15:20:00,40.6,36.1,30.05,ESE,121,4.0,4.0,84,0.00,,,0.02,Wunderground v.1.15,2013-04-14 19:20:00,
2013-04-14 15:21:00,40.6,36.1,30.05,ESE,113,4.0,-999.0,84,0.00,,,0.02,Wunderground v.1.15,2013-04-14 19:21:00,
2013-04-14 15:26:00,40.9,36.4,30.05,SE,132,3.0,6.0,84,0.00,,,0.02,Wunderground v.1.15,2013-04-14 19:26:00,
2013-04-14 15:31:00,41.1,36.6,30.04,SSE,158,5.0,-999.0,84,0.00,,,0.02,Wunderground v.1.15,2013-04-14 19:31:00,
2013-04-14 15:32:00,41.1,36.6,30.04,SSE,148,4.0,5.0,84,0.00,,,0.02,Wunderground v.1.15,2013-04-14 19:32:00,
2013-04-14 15:36:00,41.5,36.7,30.04,ENE,68,6.0,-999.0,83,0.00,,,0.02,Wunderground v.1.15,2013-04-14 19:36:00,
2013-04-14 15:38:00,41.6,37.1,30.04,SE,127,5.0,7.0,84,0.00,,,0.02,Wunderground v.1.15,2013-04-14 19:38:00,
2013-04-14 15:41:00,42.1,37.3,30.04,ENE,68,7.0,-999.0,83,0.00,,,0.02,Wunderground v.1.15,2013-04-14 19:41:00,
2013-04-14 15:43:00,42.2,37.4,30.04,SE,140,4.0,10.0,83,0.00,,,0.02,Wunderground v.1.15,2013-04-14 19:43:00,
2013-04-14 15:46:00,42.4,37.6,30.04,East,90,3.0,-999.0,83,0.00,,,0.02,Wunderground v.1.15,2013-04-14 19:46:00,
2013-04-14 15:49:00,42.4,37.3,30.03,East,95,4.0,10.0,82,0.00,,,0.02,Wunderground v.1.15,2013-04-14 19:49:00,
2013-04-14 15:51:00,42.4,37.0,30.03,East,90,5.0,-999.0,81,0.00,,,0.02,Wunderground v.1.15,2013-04-14 19:51:00,
2013-04-14 15:55:00,42.5,37.1,30.03,ESE,106,5.0,10.0,81,0.00,,,0.02,Wunderground v.1.15,2013-04-14 19:55:00,
2013-04-14 15:56:00,42.5,37.4,30.03,ENE,68,8.0,-999.0,82,0.00,,,0.02,Wunderground v.1.15,2013-04-14 19:56:00,
2013-04-14 16:00:00,42.8,37.4,30.03,SSE,161,6.0,6.0,81,0.00,,,0.02,Wunderground v.1.15,2013-04-14 20:00:00,
2013-04-14 16:01:00,42.8,37.4,30.03,SE,135,6.0,-999.0,81,0.00,,,0.02,Wunderground v.1.15,2013-04-14 20:01:00,
2013-04-14 16:06:00,43.3,38.2,30.03,ESE,115,5.0,8.0,82,0.00,,,0.02,Wunderground v.1.15,2013-04-14 20:06:00,
2013-04-14 16:11:00,43.9,38.4,30.02,NNW,338,2.0,-999.0,81,0.00,,,0.02,Wunderground v.1.15,2013-04-14 20:11:00,
2013-04-14 16:12:00,44.0,38.5,30.03,ENE,61,3.0,3.0,81,0.00,,,0.02,Wunderground v.1.15,2013-04-14 20:12:00,
2013-04-14 16:16:00,44.4,38.0,30.02,ESE,113,5.0,-999.0,78,0.00,,,0.02,Wunderground v.1.15,2013-04-14 20:16:00,
2013-04-14 16:18:00,44.4,38.0,30.02,SE,131,4.0,11.0,78,0.00,,,0.02,Wunderground v.1.15,2013-04-14 20:18:00,
2013-04-14 16:21:00,44.5,37.7,30.02,East,90,7.0,-999.0,77,0.00,,,0.02,Wunderground v.1.15,2013-04-14 20:21:00,
2013-04-14 16:24:00,44.6,37.8,30.02,SE,139,5.0,7.0,77,0.00,,,0.02,Wunderground v.1.15,2013-04-14 20:24:00,
2013-04-14 16:26:00,44.7,37.9,30.02,SE,135,4.0,-999.0,77,0.00,,,0.02,Wunderground v.1.15,2013-04-14 20:26:00,
2013-04-14 16:30:00,44.9,38.1,30.01,ESE,107,5.0,8.0,77,0.00,,,0.02,Wunderground v.1.15,2013-04-14 20:30:00,
2013-04-14 16:31:00,44.9,37.8,30.01,East,90,5.0,-999.0,76,0.00,,,0.02,Wunderground v.1.15,2013-04-14 20:31:00,
2013-04-14 16:35:00,45.1,38.3,30.01,ENE,77,5.0,8.0,77,0.00,,,0.02,Wunderground v.1.15,2013-04-14 20:35:00,
2013-04-14 16:36:00,45.1,38.0,30.02,East,90,4.0,-999.0,76,0.00,,,0.02,Wunderground v.1.15,2013-04-14 20:36:00,
2013-04-14 16:41:00,45.4,38.3,30.01,SSW,201,5.0,5.0,76,0.00,,,0.02,Wunderground v.1.15,2013-04-14 20:41:00,
2013-04-14 16:46:00,45.4,37.6,30.01,ENE,68,6.0,9.0,74,0.00,,,0.02,Wunderground v.1.15,2013-04-14 20:46:00,
2013-04-14 16:51:00,45.5,38.0,30.00,ESE,113,7.0,-999.0,75,0.00,,,0.02,Wunderground v.1.15,2013-04-14 20:51:00,
2013-04-14 16:52:00,45.5,38.0,30.00,ESE,115,6.0,7.0,75,0.00,,,0.02,Wunderground v.1.15,2013-04-14 20:52:00,
2013-04-14 16:56:00,45.7,37.9,30.00,East,90,5.0,-999.0,74,0.00,,,0.02,Wunderground v.1.15,2013-04-14 20:56:00,
2013-04-14 16:57:00,45.7,37.9,30.00,East,81,6.0,10.0,74,0.00,,,0.02,Wunderground v.1.15,2013-04-14 20:57:00,
2013-04-14 17:01:00,45.9,37.7,30.00,ESE,113,7.0,-999.0,73,0.00,,,0.02,Wunderground v.1.15,2013-04-14 21:01:00,
2013-04-14 17:02:00,45.9,37.7,30.00,East,98,6.0,8.0,73,0.00,,,0.02,Wunderground v.1.15,2013-04-14 21:02:00,
2013-04-14 17:06:00,46.1,37.9,30.00,SE,135,6.0,-999.0,73,0.00,,,0.02,Wunderground v.1.15,2013-04-14 21:06:00,
2013-04-14 17:07:00,46.1,37.9,30.00,SE,130,4.0,8.0,73,0.00,,,0.02,Wunderground v.1.15,2013-04-14 21:07:00,
2013-04-14 17:11:00,46.0,37.5,29.99,SE,135,7.0,-999.0,72,0.00,,,0.02,Wunderground v.1.15,2013-04-14 21:11:00,
2013-04-14 17:13:00,46.0,37.8,29.99,ESE,122,5.0,7.0,73,0.00,,,0.02,Wunderground v.1.15,2013-04-14 21:13:00,
2013-04-14 17:16:00,46.0,37.5,29.99,SE,135,8.0,-999.0,72,0.00,,,0.02,Wunderground v.1.15,2013-04-14 21:16:00,
2013-04-14 17:19:00,46.0,37.5,29.99,ESE,117,6.0,8.0,72,0.00,,,0.02,Wunderground v.1.15,2013-04-14 21:19:00,
2013-04-14 17:21:00,46.0,37.5,29.99,East,90,2.0,-999.0,72,0.00,,,0.02,Wunderground v.1.15,2013-04-14 21:21:00,
2013-04-14 17:24:00,46.1,37.6,29.98,SE,140,4.0,7.0,72,0.00,,,0.02,Wunderground v.1.15,2013-04-14 21:24:00,
2013-04-14 17:26:00,46.2,38.0,29.98,SSE,158,4.0,-999.0,73,0.00,,,0.02,Wunderground v.1.15,2013-04-14 21:26:00,
2013-04-14 17:30:00,46.4,37.9,29.98,SE,125,3.0,7.0,72,0.00,,,0.02,Wunderground v.1.15,2013-04-14 21:30:00,
2013-04-14 17:31:00,46.4,38.2,29.98,ESE,113,5.0,-999.0,73,0.00,,,0.02,Wunderground v.1.15,2013-04-14 21:31:00,
2013-04-14 17:36:00,46.5,38.0,29.98,East,86,5.0,10.0,72,0.00,,,0.02,Wunderground v.1.15,2013-04-14 21:36:00,
2013-04-14 17:41:00,46.3,37.8,29.98,East,96,7.0,8.0,72,0.00,,,0.02,Wunderground v.1.15,2013-04-14 21:41:00,
2013-04-14 17:46:00,46.4,39.2,29.99,SSE,158,5.0,-999.0,76,0.00,,,0.02,Wunderground v.1.15,2013-04-14 21:46:00,
2013-04-14 17:47:00,46.5,38.3,29.99,ESE,123,6.0,11.0,73,0.00,,,0.02,Wunderground v.1.15,2013-04-14 21:47:00,
2013-04-14 17:51:00,46.6,38.1,29.99,East,90,7.0,-999.0,72,0.00,,,0.02,Wunderground v.1.15,2013-04-14 21:51:00,
2013-04-14 17:53:00,46.6,38.1,29.99,East,101,5.0,11.0,72,0.00,,,0.02,Wunderground v.1.15,2013-04-14 21:53:00,
2013-04-14 17:56:00,46.6,38.1,29.99,ENE,68,8.0,-999.0,72,0.00,,,0.02,Wunderground v.1.15,2013-04-14 21:56:00,
2013-04-14 17:58:00,46.6,38.4,29.99,SE,136,5.0,11.0,73,0.00,,,0.02,Wunderground v.1.15,2013-04-14 21:58:00,
2013-04-14 18:01:00,46.7,38.5,29.99,SSE,158,5.0,-999.0,73,0.00,,,0.02,Wunderground v.1.15,2013-04-14 22:01:00,
2013-04-14 18:04:00,46.7,38.1,29.99,ESE,122,5.0,6.0,72,0.00,,,0.02,Wunderground v.1.15,2013-04-14 22:04:00,
2013-04-14 18:06:00,46.6,38.1,30.00,SE,135,8.0,-999.0,72,0.00,,,0.02,Wunderground v.1.15,2013-04-14 22:06:00,
2013-04-14 18:09:00,46.5,38.0,29.99,ESE,103,5.0,9.0,72,0.00,,,0.02,Wunderground v.1.15,2013-04-14 22:09:00,
2013-04-14 18:11:00,46.5,38.0,29.99,ESE,113,3.0,-999.0,72,0.00,,,0.02,Wunderground v.1.15,2013-04-14 22:11:00,
2013-04-14 18:15:00,46.5,38.0,30.00,ESE,109,5.0,12.0,72,0.00,,,0.02,Wunderground v.1.15,2013-04-14 22:15:00,
2013-04-14 18:16:00,46.5,38.0,30.00,SE,135,8.0,-999.0,72,0.00,,,0.02,Wunderground v.1.15,2013-04-14 22:16:00,
2013-04-14 18:20:00,46.5,38.3,30.00,ESE,123,6.0,6.0,73,0.00,,,0.02,Wunderground v.1.15,2013-04-14 22:20:00,
2013-04-14 18:21:00,46.6,38.4,30.00,SE,135,4.0,-999.0,73,0.00,,,0.02,Wunderground v.1.15,2013-04-14 22:21:00,
2013-04-14 18:26:00,46.8,37.9,29.99,ESE,110,6.0,13.0,71,0.00,,,0.02,Wunderground v.1.15,2013-04-14 22:26:00,
2013-04-14 18:31:00,46.5,37.6,30.00,ESE,113,10.0,-999.0,71,0.00,,,0.02,Wunderground v.1.15,2013-04-14 22:31:00,
2013-04-14 18:32:00,46.5,37.6,29.99,East,79,7.0,7.0,71,0.00,,,0.02,Wunderground v.1.15,2013-04-14 22:32:00,
2013-04-14 18:36:00,46.4,37.5,30.00,SE,135,2.0,-999.0,71,0.00,,,0.02,Wunderground v.1.15,2013-04-14 22:36:00,
2013-04-14 18:38:00,46.4,37.5,29.99,East,96,7.0,11.0,71,0.00,,,0.02,Wunderground v.1.15,2013-04-14 22:38:00,
2013-04-14 18:41:00,46.4,37.5,29.99,SE,135,7.0,-999.0,71,0.00,,,0.02,Wunderground v.1.15,2013-04-14 22:41:00,
2013-04-14 18:43:00,46.4,37.5,29.99,SE,140,6.0,12.0,71,0.00,,,0.02,Wunderground v.1.15,2013-04-14 22:43:00,
2013-04-14 18:46:00,46.4,37.9,30.00,East,90,4.0,-999.0,72,0.00,,,0.02,Wunderground v.1.15,2013-04-14 22:46:00,
2013-04-14 18:48:00,46.4,37.9,30.00,ESE,108,6.0,14.0,72,0.00,,,0.02,Wunderground v.1.15,2013-04-14 22:48:00,
2013-04-14 18:51:00,46.3,37.8,30.00,SE,135,10.0,-999.0,72,0.00,,,0.02,Wunderground v.1.15,2013-04-14 22:51:00,
2013-04-14 18:54:00,46.3,37.8,30.00,SE,136,7.0,9.0,72,0.00,,,0.02,Wunderground v.1.15,2013-04-14 22:54:00,
2013-04-14 18:56:00,46.3,37.8,30.00,SSE,158,0.0,-999.0,72,0.00,,,0.02,Wunderground v.1.15,2013-04-14 22:56:00,
2013-04-14 19:00:00,46.3,37.8,30.00,ESE,106,5.0,7.0,72,0.00,,,0.02,Wunderground v.1.15,2013-04-14 23:00:00,
2013-04-14 19:01:00,46.3,37.8,30.00,ENE,68,8.0,-999.0,72,0.00,,,0.02,Wunderground v.1.15,2013-04-14 23:01:00,
2013-04-14 19:06:00,46.4,37.9,30.00,SE,144,4.0,8.0,72,0.00,,,0.02,Wunderground v.1.15,2013-04-14 23:06:00,
2013-04-14 19:11:00,46.3,37.8,30.01,ESE,113,8.0,-999.0,72,0.00,,,0.02,Wunderground v.1.15,2013-04-14 23:11:00,
2013-04-14 19:12:00,46.3,37.8,30.00,East,82,4.0,9.0,72,0.00,,,0.02,Wunderground v.1.15,2013-04-14 23:12:00,
2013-04-14 19:16:00,46.2,37.7,30.00,ESE,113,6.0,-999.0,72,0.00,,,0.02,Wunderground v.1.15,2013-04-14 23:16:00,
2013-04-14 19:17:00,46.2,37.7,30.00,East,88,5.0,14.0,72,0.00,,,0.02,Wunderground v.1.15,2013-04-14 23:17:00,
2013-04-14 19:21:00,46.2,37.7,30.00,East,90,6.0,-999.0,72,0.00,,,0.02,Wunderground v.1.15,2013-04-14 23:21:00,
2013-04-14 19:22:00,46.1,37.6,30.00,East,97,5.0,9.0,72,0.00,,,0.02,Wunderground v.1.15,2013-04-14 23:22:00,
2013-04-14 19:26:00,46.0,37.8,30.00,East,90,4.0,-999.0,73,0.00,,,0.02,Wunderground v.1.15,2013-04-14 23:26:00,
2013-04-14 19:28:00,45.9,37.7,29.99,ESE,109,7.0,12.0,73,0.00,,,0.02,Wunderground v.1.15,2013-04-14 23:28:00,
2013-04-14 19:31:00,45.8,37.6,29.99,SE,135,4.0,-999.0,73,0.00,,,0.02,Wunderground v.1.15,2013-04-14 23:31:00,
2013-04-14 19:34:00,45.8,37.6,30.00,ESE,111,6.0,9.0,73,0.00,,,0.02,Wunderground v.1.15,2013-04-14 23:34:00,
2013-04-14 19:36:00,45.8,37.6,30.00,SSE,158,6.0,-999.0,73,0.00,,,0.02,Wunderground v.1.15,2013-04-14 23:36:00,
2013-04-14 19:40:00,45.6,37.8,29.99,SSE,159,6.0,6.0,74,0.00,,,0.02,Wunderground v.1.15,2013-04-14 23:40:00,
2013-04-14 19:41:00,45.5,37.7,29.99,SSE,158,4.0,-999.0,74,0.00,,,0.02,Wunderground v.1.15,2013-04-14 23:41:00,
2013-04-14 19:45:00,45.4,37.9,29.99,ESE,105,5.0,7.0,75,0.00,,,0.02,Wunderground v.1.15,2013-04-14 23:45:00,
2013-04-14 19:46:00,45.4,37.9,29.99,ESE,113,4.0,-999.0,75,0.00,,,0.02,Wunderground v.1.15,2013-04-14 23:46:00,
2013-04-14 19:51:00,45.2,37.7,29.99,SE,139,4.0,7.0,75,0.00,,,0.02,Wunderground v.1.15,2013-04-14 23:51:00,
2013-04-14 19:56:00,44.8,37.7,29.98,ESE,107,6.0,10.0,76,0.00,,,0.02,Wunderground v.1.15,2013-04-14 23:56:00,
2013-04-14 20:01:00,44.5,37.7,29.98,SSE,148,6.0,7.0,77,0.00,,,0.02,Wunderground v.1.15,2013-04-15 00:01:00,
2013-04-14 20:06:00,44.2,37.4,29.98,SE,141,6.0,7.0,77,0.00,,,0.02,Wunderground v.1.15,2013-04-15 00:06:00,
2013-04-14 20:11:00,43.9,37.5,29.98,East,97,6.0,10.0,78,0.00,,,0.02,Wunderground v.1.15,2013-04-15 00:11:00,
2013-04-14 20:16:00,43.7,37.3,29.98,SE,135,8.0,-999.0,78,0.00,,,0.02,Wunderground v.1.15,2013-04-15 00:16:00,
2013-04-14 20:17:00,43.7,37.3,29.98,ESE,109,6.0,10.0,78,0.00,,,0.02,Wunderground v.1.15,2013-04-15 00:17:00,
2013-04-14 20:21:00,43.6,37.2,29.98,East,90,4.0,-999.0,78,0.00,,,0.02,Wunderground v.1.15,2013-04-15 00:21:00,
2013-04-14 20:22:00,43.6,37.2,29.99,ESE,111,6.0,8.0,78,0.00,,,0.02,Wunderground v.1.15,2013-04-15 00:22:00,
2013-04-14 20:26:00,43.4,37.3,29.98,ESE,113,7.0,-999.0,79,0.00,,,0.02,Wunderground v.1.15,2013-04-15 00:26:00,
2013-04-14 20:28:00,43.4,37.3,29.99,ESE,113,5.0,12.0,79,0.00,,,0.02,Wunderground v.1.15,2013-04-15 00:28:00,
2013-04-14 20:31:00,43.3,37.2,29.98,ESE,113,4.0,-999.0,79,0.00,,,0.02,Wunderground v.1.15,2013-04-15 00:31:00,
2013-04-14 20:33:00,43.3,37.2,29.98,ESE,104,5.0,10.0,79,0.00,,,0.02,Wunderground v.1.15,2013-04-15 00:33:00,
2013-04-14 20:36:00,43.1,37.0,29.98,ESE,113,3.0,-999.0,79,0.00,,,0.02,Wunderground v.1.15,2013-04-15 00:36:00,
2013-04-14 20:39:00,43.0,36.9,29.98,ESE,103,4.0,10.0,79,0.00,,,0.02,Wunderground v.1.15,2013-04-15 00:39:00,
2013-04-14 20:41:00,42.9,36.8,29.98,ESE,113,6.0,-999.0,79,0.00,,,0.02,Wunderground v.1.15,2013-04-15 00:41:00,
2013-04-14 20:44:00,42.9,36.8,29.98,ENE,78,5.0,9.0,79,0.00,,,0.02,Wunderground v.1.15,2013-04-15 00:44:00,
2013-04-14 20:46:00,42.8,36.7,29.98,East,90,5.0,-999.0,79,0.00,,,0.02,Wunderground v.1.15,2013-04-15 00:46:00,
2013-04-14 20:50:00,42.7,36.6,29.97,SE,133,5.0,5.0,79,0.00,,,0.02,Wunderground v.1.15,2013-04-15 00:50:00,
2013-04-14 20:51:00,42.7,36.6,29.97,East,90,6.0,-999.0,79,0.00,,,0.02,Wunderground v.1.15,2013-04-15 00:51:00,
2013-04-14 20:55:00,42.6,36.5,29.97,East,90,4.0,8.0,79,0.00,,,0.02,Wunderground v.1.15,2013-04-15 00:55:00,
2013-04-14 20:56:00,42.6,36.5,29.97,East,90,4.0,-999.0,79,0.00,,,0.02,Wunderground v.1.15,2013-04-15 00:56:00,
2013-04-14 21:00:00,42.5,36.4,29.97,ESE,116,5.0,5.0,79,0.00,,,0.02,Wunderground v.1.15,2013-04-15 01:00:00,
2013-04-14 21:01:00,42.4,36.3,29.97,ESE,113,3.0,-999.0,79,0.00,,,0.02,Wunderground v.1.15,2013-04-15 01:01:00,
2013-04-14 21:06:00,42.4,36.3,29.97,ENE,70,5.0,5.0,79,0.00,,,0.02,Wunderground v.1.15,2013-04-15 01:06:00,
2013-04-14 21:11:00,42.3,36.3,29.97,ENE,77,5.0,5.0,79,0.00,,,0.02,Wunderground v.1.15,2013-04-15 01:11:00,
2013-04-14 21:16:00,42.2,36.2,29.97,East,90,9.0,-999.0,79,0.00,,,0.02,Wunderground v.1.15,2013-04-15 01:16:00,
2013-04-14 21:17:00,42.2,36.2,29.97,ESE,115,5.0,14.0,79,0.00,,,0.02,Wunderground v.1.15,2013-04-15 01:17:00,
2013-04-14 21:21:00,42.0,36.0,29.97,ESE,113,8.0,-999.0,79,0.00,,,0.02,Wunderground v.1.15,2013-04-15 01:21:00,
2013-04-14 21:23:00,42.1,36.1,29.97,ESE,123,5.0,8.0,79,0.00,,,0.02,Wunderground v.1.15,2013-04-15 01:23:00,
2013-04-14 21:26:00,42.0,36.0,29.97,SE,135,2.0,-999.0,79,0.00,,,0.02,Wunderground v.1.15,2013-04-15 01:26:00,
2013-04-14 21:29:00,42.0,36.0,29.97,ESE,103,5.0,11.0,79,0.00,,,0.02,Wunderground v.1.15,2013-04-15 01:29:00,
2013-04-14 21:31:00,42.0,36.0,29.97,East,90,8.0,-999.0,79,0.00,,,0.02,Wunderground v.1.15,2013-04-15 01:31:00,
2013-04-14 21:35:00,42.0,36.0,29.97,ESE,110,6.0,10.0,79,0.00,,,0.02,Wunderground v.1.15,2013-04-15 01:35:00,
2013-04-14 21:36:00,42.0,36.0,29.97,SE,135,7.0,-999.0,79,0.00,,,0.02,Wunderground v.1.15,2013-04-15 01:36:00,
2013-04-14 21:41:00,41.9,35.9,29.97,SE,138,6.0,6.0,79,0.00,,,0.02,Wunderground v.1.15,2013-04-15 01:41:00,
2013-04-14 21:46:00,41.9,35.9,29.97,ESE,111,5.0,10.0,79,0.00,,,0.02,Wunderground v.1.15,2013-04-15 01:46:00,
2013-04-14 21:51:00,41.9,35.5,29.97,ESE,113,7.0,-999.0,78,0.00,,,0.02,Wunderground v.1.15,2013-04-15 01:51:00,
2013-04-14 21:52:00,41.9,35.5,29.97,ENE,78,6.0,10.0,78,0.00,,,0.02,Wunderground v.1.15,2013-04-15 01:52:00,
2013-04-14 21:56:00,41.8,35.4,29.96,East,90,7.0,-999.0,78,0.00,,,0.02,Wunderground v.1.15,2013-04-15 01:56:00,
2013-04-14 21:58:00,41.8,35.4,29.96,ESE,102,7.0,10.0,78,0.00,,,0.02,Wunderground v.1.15,2013-04-15 01:58:00,
2013-04-14 22:01:00,41.7,35.3,29.96,ESE,113,2.0,-999.0,78,0.00,,,0.02,Wunderground v.1.15,2013-04-15 02:01:00,
2013-04-14 22:04:00,41.7,35.3,29.96,South,181,5.0,10.0,78,0.00,,,0.02,Wunderground v.1.15,2013-04-15 02:04:00,
2013-04-14 22:06:00,41.6,35.2,29.96,East,90,4.0,-999.0,78,0.00,,,0.02,Wunderground v.1.15,2013-04-15 02:06:00,
2013-04-14 22:10:00,41.6,35.2,29.96,SSE,167,5.0,6.0,78,0.00,,,0.02,Wunderground v.1.15,2013-04-15 02:10:00,
2013-04-14 22:11:00,41.6,35.2,29.96,SE,135,6.0,-999.0,78,0.00,,,0.02,Wunderground v.1.15,2013-04-15 02:11:00,
2013-04-14 22:16:00,41.6,34.9,29.96,SE,132,6.0,11.0,77,0.00,,,0.02,Wunderground v.1.15,2013-04-15 02:16:00,
2013-04-14 22:21:00,41.5,34.8,29.95,ESE,113,4.0,-999.0,77,0.00,,,0.02,Wunderground v.1.15,2013-04-15 02:21:00,
2013-04-14 22:22:00,41.5,34.8,29.95,ESE,111,6.0,6.0,77,0.00,,,0.02,Wunderground v.1.15,2013-04-15 02:22:00,
2013-04-14 22:26:00,41.4,35.1,29.95,East,90,2.0,-999.0,78,0.00,,,0.02,Wunderground v.1.15,2013-04-15 02:26:00,
2013-04-14 22:27:00,41.3,35.0,29.95,SE,138,5.0,8.0,78,0.00,,,0.02,Wunderground v.1.15,2013-04-15 02:27:00,
2013-04-14 22:31:00,41.3,35.0,29.95,SE,135,5.0,-999.0,78,0.00,,,0.02,Wunderground v.1.15,2013-04-15 02:31:00,
2013-04-14 22:33:00,41.3,35.0,29.95,ESE,122,5.0,10.0,78,0.00,,,0.02,Wunderground v.1.15,2013-04-15 02:33:00,
2013-04-14 22:36:00,41.3,34.6,29.95,East,90,5.0,-999.0,77,0.00,,,0.02,Wunderground v.1.15,2013-04-15 02:36:00,
2013-04-14 22:38:00,41.2,34.5,29.95,ESE,119,6.0,13.0,77,0.00,,,0.02,Wunderground v.1.15,2013-04-15 02:38:00,
2013-04-14 22:41:00,41.2,34.5,29.95,ESE,113,10.0,-999.0,77,0.00,,,0.02,Wunderground v.1.15,2013-04-15 02:41:00,
2013-04-14 22:44:00,41.3,34.6,29.95,East,92,7.0,16.0,77,0.00,,,0.02,Wunderground v.1.15,2013-04-15 02:44:00,
2013-04-14 22:46:00,41.3,34.6,29.95,East,90,6.0,-999.0,77,0.00,,,0.02,Wunderground v.1.15,2013-04-15 02:46:00,
2013-04-14 22:49:00,41.3,34.6,29.94,ESE,118,7.0,16.0,77,0.00,,,0.02,Wunderground v.1.15,2013-04-15 02:49:00,
2013-04-14 22:51:00,41.3,34.6,29.94,ESE,113,5.0,-999.0,77,0.00,,,0.02,Wunderground v.1.15,2013-04-15 02:51:00,
2013-04-14 22:55:00,41.3,34.6,29.94,ENE,74,7.0,10.0,77,0.00,,,0.02,Wunderground v.1.15,2013-04-15 02:55:00,
2013-04-14 22:56:00,41.2,34.5,29.94,ESE,113,4.0,-999.0,77,0.00,,,0.02,Wunderground v.1.15,2013-04-15 02:56:00,
2013-04-14 23:00:00,41.2,34.5,29.94,East,98,7.0,7.0,77,0.00,,,0.02,Wunderground v.1.15,2013-04-15 03:00:00,
2013-04-14 23:01:00,41.3,34.6,29.94,ESE,113,8.0,-999.0,77,0.00,,,0.02,Wunderground v.1.15,2013-04-15 03:01:00,
2013-04-14 23:06:00,41.2,34.5,29.94,ESE,105,7.0,13.0,77,0.00,,,0.02,Wunderground v.1.15,2013-04-15 03:06:00,
2013-04-14 23:11:00,41.2,34.5,29.94,ENE,68,4.0,-999.0,77,0.00,,,0.02,Wunderground v.1.15,2013-04-15 03:11:00,
2013-04-14 23:12:00,41.2,34.5,29.94,East,82,5.0,6.0,77,0.00,,,0.02,Wunderground v.1.15,2013-04-15 03:12:00,
2013-04-14 23:16:00,41.1,34.4,29.94,SE,135,6.0,-999.0,77,0.00,,,0.02,Wunderground v.1.15,2013-04-15 03:16:00,
2013-04-14 23:17:00,41.1,34.4,29.94,SE,146,4.0,9.0,77,0.00,,,0.02,Wunderground v.1.15,2013-04-15 03:17:00,
2013-04-14 23:21:00,41.1,34.4,29.94,ESE,113,6.0,-999.0,77,0.00,,,0.02,Wunderground v.1.15,2013-04-15 03:21:00,
2013-04-14 23:23:00,41.1,34.8,29.94,East,95,6.0,13.0,78,0.00,,,0.02,Wunderground v.1.15,2013-04-15 03:23:00,
2013-04-14 23:26:00,41.1,34.8,29.94,ESE,113,8.0,-999.0,78,0.00,,,0.02,Wunderground v.1.15,2013-04-15 03:26:00,
2013-04-14 23:29:00,41.1,34.8,29.94,SE,132,6.0,13.0,78,0.00,,,0.02,Wunderground v.1.15,2013-04-15 03:29:00,
2013-04-14 23:31:00,41.0,34.7,29.94,East,90,4.0,-999.0,78,0.00,,,0.02,Wunderground v.1.15,2013-04-15 03:31:00,
2013-04-14 23:35:00,40.9,34.6,29.93,ESE,103,6.0,10.0,78,0.00,,,0.02,Wunderground v.1.15,2013-04-15 03:35:00,
2013-04-14 23:36:00,40.9,34.6,29.93,ESE,113,5.0,-999.0,78,0.00,,,0.02,Wunderground v.1.15,2013-04-15 03:36:00,
2013-04-14 23:40:00,40.9,34.6,29.93,SE,129,5.0,8.0,78,0.00,,,0.02,Wunderground v.1.15,2013-04-15 03:40:00,
2013-04-14 23:41:00,40.9,34.6,29.93,SE,135,6.0,-999.0,78,0.00,,,0.02,Wunderground v.1.15,2013-04-15 03:41:00,
2013-04-14 23:45:00,40.9,34.6,29.93,SSE,156,6.0,10.0,78,0.00,,,0.02,Wunderground v.1.15,2013-04-15 03:45:00,
2013-04-14 23:46:00,40.9,34.6,29.92,ESE,113,8.0,-999.0,78,0.00,,,0.02,Wunderground v.1.15,2013-04-15 03:46:00,
2013-04-14 23:51:00,40.9,34.6,29.92,East,84,7.0,7.0,78,0.00,,,0.02,Wunderground v.1.15,2013-04-15 03:51:00,
2013-04-14 23:56:00,40.8,34.8,29.92,SSE,149,6.0,7.0,79,0.00,,,0.02,Wunderground v.1.15,2013-04-15 03:56:00,